CW1706 Weather Reports


time (UTC)temp
C
wind
direction
speed
KPH
gust
KPH
rain 1hr
cm
rain 24hr
cm
rain mn
cm
humidity
%
barometer
mb
20260507030332 16 178 1.6 3.2 0.00 0.13 0.13 94 1008.6
20260507023342 16 177 0.0 0.0 0.00 0.13 0.13 93 1009.2
20260507020322 17 177 0.0 0.0 0.00 0.13 0.13 91 1009.1
20260507013330 17 360 0.0 0.0 0.00 0.13 0.13 89 1009.6
20260507010340 18 360 0.0 3.2 0.00 0.13 0.13 87 1009.2
20260507003348 19 360 3.2 8.0 0.00 0.13 0.13 85 1009.1
20260507000329 20 190 6.4 11.3 0.00 0.13 0.13 83 1008.7
20260506233342 20 190 4.8 14.5 0.00 0.13 0.13 82 1008.6
20260506230321 21 213 6.4 16.1 0.00 0.13 0.13 80 1008.3
20260506223408 21 217 8.0 16.1 0.00 0.13 0.13 79 1008.5
20260506220326 21 163 4.8 20.9 0.00 0.13 0.13 79 1008.6
20260506213338 21 225 9.7 19.3 0.00 0.13 0.13 80 1008.4
20260506210345 20 205 12.9 20.9 0.00 0.13 0.13 80 1008.3
20260506203327 20 211 9.7 22.5 0.00 0.13 0.13 80 1008.8
20260506200338 20 169 11.3 24.1 0.00 0.13 0.13 79 1008.9
20260506193322 21 215 6.4 12.9 0.00 0.13 0.13 79 1009.5
20260506190334 21 196 16.1 29.0 0.00 0.13 0.13 78 1008.9
20260506183344 20 217 12.9 30.6 0.00 0.13 0.13 81 1009.9
20260506180322 19 225 17.7 37.0 0.00 0.13 0.13 84 1010.0
20260506173337 18 360 17.7 40.2 0.03 0.13 0.13 89 1010.3
20260506170342 17 360 12.9 33.8 0.08 0.13 0.13 90 1010.5
20260506163322 17 360 14.5 24.1 0.08 0.10 0.10 89 1010.7
20260506160345 18 193 8.0 30.6 0.05 0.05 0.05 90 1011.2
20260506153326 18 360 11.3 22.5 0.03 0.03 0.03 87 1011.7
20260506150354 19 360 8.0 19.3 0.00 0.00 0.00 81 1011.6
20260506143357 20 214 16.1 29.0 0.00 0.00 0.00 74 1011.6
20260506140346 20 205 12.9 27.4 0.00 0.00 0.00 73 1011.5
20260506133328 20 205 17.7 49.9 0.00 0.00 0.00 71 1011.5
20260506130342 20 182 17.7 32.2 0.00 0.00 0.00 70 1011.5
20260506123322 20 360 16.1 27.4 0.00 0.00 0.00 73 1011.9
20260506120333 19 360 12.9 30.6 0.00 0.00 0.00 77 1012.1
20260506113402 17 360 17.7 29.0 0.00 0.00 0.00 80 1011.6
20260506110326 17 360 11.3 24.1 0.00 0.00 0.00 80 1011.5
20260506103331 17 360 8.0 19.3 0.00 0.00 0.00 81 1011.4
20260506100359 17 172 8.0 14.5 0.00 0.00 0.00 80 1011.6
20260506093345 17 190 11.3 22.5 0.00 0.00 0.00 79 1011.4
20260506090329 17 157 8.0 24.1 0.00 0.00 0.00 80 1011.5
20260506083338 17 360 11.3 24.1 0.00 0.00 0.00 80 1011.5
20260506080321 17 360 11.3 22.5 0.00 0.00 0.00 80 1011.7
20260506073344 18 360 14.5 30.6 0.00 0.00 0.00 79 1011.9
20260506070336 18 360 12.9 27.4 0.00 0.00 0.00 79 1011.9
20260506060325 18 360 16.1 30.6 0.00 0.00 0.00 80 1012.0
20260506050342 19 360 12.9 29.0 0.00 0.00 0.00 78 1012.4
20260506043324 19 198 19.3 35.4 0.00 0.00 0.00 77 1012.5
20260506040330 20 227 16.1 29.0 0.00 0.00 0.00 77 1012.5
20260506033334 20 194 11.3 33.8 0.00 0.00 0.00 77 1012.3